Flag for Canada Weather past 2 weeks in Kawartha Lakes, Ontario, Canada

Now
64 °F

Mild.


Feels Like: 64 °F
Forecast: 62 / 78 °F
Wind: 9 mph from South

Location: Lagoon City

Current Time: May 27, 2015 at 6:32:46 AM

Latest Report: May 27, 2015 at 5:00 AM


Visibility: N/A

Pressure: 29.89 "Hg

Humidity: 89%

Dew point: 61 °F

Location of Kawartha LakesLocation

Historic Weather in Kawartha Lakes — Graph

°F

Kawartha Lakes temperature yesterday

Maximum temperature yesterday: 77 °F (at 8:00 PM)
Minimum temperature yesterday: 60 °F (at 5:00 AM)
Average temperature yesterday: 66 °F

Past Weeks' High & Low Weather Summary

 TemperatureHumidityPressure
High77 °F (May 26, 8:00 PM)100% (May 12, 5:00 AM)30.47 "Hg (May 12, 5:00 AM)
Low37 °F (May 14, 6:00 AM)21% (May 24, 4:00 PM)29.70 "Hg (May 12, 5:00 AM)
Average55 °F69%30.07 "Hg
* Reported May 12 5:00 AM — May 27 5:00 AM, Kawartha Lakes, Weather by CustomWeather, © 2015

Note: Actual official high and low records may vary slightly from our data, if they occured in-between our weather recording intervals... More about our weather records

Advertising

Kawartha Lakes weather history for previous 24 hours

 ConditionsComfort  
Time TempWeatherWind HumidityBarometerVisibility
5:00 AM
Wed, May 27
64 °FMild.9 mph89%29.89 "HgN/A
4:00 AM65 °FMild.10 mph88%29.87 "HgN/A
3:00 AM65 °FMild.15 mph86%29.87 "HgN/A
2:00 AM66 °FMild.17 mph85%29.88 "HgN/A
1:00 AM67 °FMild.20 mph81%29.91 "HgN/A
12:00 AM70 °FMild.15 mph76%29.91 "HgN/A
11:00 PM
Tue, May 26
70 °FMild.14 mph76%29.93 "HgN/A
10:00 PM71 °FMild.15 mph73%29.93 "HgN/A
9:00 PM72 °FMild.15 mph71%29.91 "HgN/A
8:00 PM77 °FMild.15 mph64%29.92 "HgN/A
7:00 PM72 °FMild.16 mph70%29.93 "HgN/A
6:00 PM70 °FMild.14 mph70%29.95 "HgN/A
5:00 PM70 °FMild.8 mph76%29.96 "HgN/A
4:00 PM77 °FMild.5 mph56%29.98 "HgN/A
3:00 PM73 °FMild.3 mph67%30.00 "HgN/A
2:00 PM71 °FMild.9 mph74%30.01 "HgN/A
1:00 PM67 °FMild.7 mph80%30.02 "HgN/A
12:00 PM64 °FMild.12 mph85%30.03 "HgN/A
11:00 AM64 °FMild.12 mph86%30.03 "HgN/A
10:00 AM63 °FMild.14 mph87%30.04 "HgN/A
9:00 AM62 °FCool.13 mph89%30.03 "HgN/A
8:00 AM61 °FCool.13 mph91%30.02 "HgN/A
7:00 AM60 °FCool.10 mph92%30.01 "HgN/A
6:00 AM61 °FCool.14 mph92%29.98 "HgN/A
Weather by CustomWeather, © 2015

See weather overviewHow to use our weather pages